www.pogodaiklimat.ru

Погода и климат >> Архив погоды >> Иран >> Ахваз


ПОГОДА в Ахвазе

  • Прогноз погоды в Ахвазе
  • Монитор погоды в Ахвазе

АРХИВ ПОГОДЫ в Ахвазе

Время (UTC), дата Ветер
(напр.,м/с)
 
Видим.   Явления Облачность Т
(С)
Тd
(С)
f
(%)
Тe
(С)
Тes
(С)
Комфортность P
(гПа)
Po
(гПа)
Тmin
(С)
Tmax
(С)
R
(мм)
R24
(мм)
S
(см)
09 12.08 З 2 8000 м мгла ясно +46.1 +14.2 16 +47 +67 опасность
перегрева
993.6 991.3
12 12.08 З 3 10 км ясно +48.4 +10.3 11 +47 +55 опасность
перегрева
992.1 989.7
15 12.08 З 3 10 км ясно +45.3 +10.5 13 +44 +44 опасность
перегрева
991.7 989.3 +50.0
18 12.08 штиль 0 10 км ясно +35.4 +15.2 30 +37 +37 очень
душно
993.2 990.9
21 12.08 Ю 1 10 км 1/0
[Ac trans]
+31.8 +12.6 31 +32 +32 жарко 993.4 991.0
00 13.08 Ю 1 8000 м мгла 6/0
[Ac trans]
+32.4 +15.0 35 +34 +34 очень
жарко
994.1 991.7
03 13.08 ЮВ 2 5000 м мгла 4/1 1200 м
[Sc Ac trans]
+30.8 +22.9 63 +41 +41 опасность
перегрева
995.2 992.8 +30.5
06 13.08 ЮВ 5 5000 м мгла 4/1 1200 м
[Sc diur, vesp Ac trans]
+36.9 +24.4 49 +49 +54 опасность
перегрева
997.3 994.9
09 13.08 Ю 3 10 км 3/0
[Ci fib]
+44.4 +19.9 25 +49 +65 опасность
перегрева
997.1 994.7
12 13.08 ЮЗ 3 10 км 1/0
[Ci fib]
+47.2 +16.9 18 +49 +58 опасность
перегрева
995.4 993.1
15 13.08 ЮЗ 1 10 км 1/0
[Ci fib]
+43.4 +19.1 25 +47 +48 опасность
перегрева
995.5 993.1 +47.6
18 13.08 Ю 3 10 км ясно +38.0 +18.4 32 +42 +42 опасность
перегрева
997.8 995.4
21 13.08 Ю 3 8000 м мгла ясно +34.8 +18.0 37 +39 +39 очень
душно
998.2 995.8
00 14.08 ЮВ 2 7000 м мгла ясно +32.2 +21.4 53 +40 +40 очень
душно
997.7 995.3
03 14.08 СВ 1 5000 м мгла 1/0
[Ac trans]
+29.0 +20.2 59 +35 +36 очень
душно
998.3 995.9 +28.9 666
06 14.08 ЮВ 2 6000 м мгла ясно +39.1 +18.9 31 +43 +56 опасность
перегрева
999.8 997.4
09 14.08 В 2 7000 м мгла ясно +45.5 +14.7 17 +46 +66 опасность
перегрева
998.7 996.3 666
12 14.08 З 2 10 км ясно +47.5 +17.2 18 +50 +60 опасность
перегрева
997.0 994.6
15 14.08 ЮЗ 2 10 км ясно +43.5 +19.8 26 +48 +48 опасность
перегрева
996.9 994.5 +48.1 666
18 14.08 Ю 2 7000 м мгла ясно +39.6 +19.8 32 +45 +45 опасность
перегрева
999.0 996.6
21 14.08 ЮВ 2 6000 м мгла ясно +35.8 +21.3 43 +43 +43 опасность
перегрева
999.5 997.1
00 15.08 ЮВ 3 6000 м мгла ясно +33.7 +22.2 51 +43 +43 опасность
перегрева
998.9 996.5
03 15.08 ЮВ 2 5000 м мгла 4/1 1200 м
[Sc diur, vesp Ac trans]
+32.3 +20.6 50 +39 +40 очень
душно
999.7 997.3 +32.1 666
06 15.08 СВ 1 7000 м мгла 3/0
[Ac trans Ci fib]
+41.4 +22.8 35 +50 +63 опасность
перегрева
1000.7 998.3
09 15.08 З 2 10 км 1/0
[Ac trans]
+46.3 +13.4 15 +46 +65 опасность
перегрева
999.7 997.3
12 15.08 З 4 10 км ясно +48.2 +12.7 13 +48 +55 опасность
перегрева
997.6 995.3
15 15.08 З 4 10 км ясно +44.1 +15.3 19 +45 +45 опасность
перегрева
997.1 994.7 +48.5
18 15.08 З 5 10 км ясно +41.3 +13.8 20 +42 +42 опасность
перегрева
998.4 996.1
21 15.08 СЗ 4 10 км 1/1 1200 м
[Sc]
+38.1 +14.0 24 +39 +39 очень
душно
998.9 996.5
00 16.08 СЗ 3 10 км ясно +35.4 +15.2 30 +37 +37 очень
душно
998.9 996.5
03 16.08 З 2 10 км 3/0
[Ac trans]
+33.4 +14.9 33 +35 +36 душно 999.5 997.1 +32.4
06 16.08 З 3 10 км ясно +37.7 +14.3 25 +38 +49 очень
жарко
1000.2 997.9
09 16.08 СЗ 4 10 км ясно +43.1 +13.7 18 +43 +57 опасность
перегрева
999.3 997.0
12 16.08 З 6 10 км ясно +45.8 +13.0 15 +46 +50 опасность
перегрева
997.3 994.9
15 16.08 З 4 10 км 1/0
[Ac trans]
+42.6 +10.5 15 +41 +41 опасность
перегрева
997.1 994.7 +46.0 666
18 16.08 С 2 10 км ясно +37.8 +13.1 23 +38 +38 очень
жарко
999.0 996.6
21 16.08 З 3 10 км ясно +37.4 +9.1 18 +36 +36 очень
жарко
997.7 995.3
00 17.08 СЗ 3 10 км ясно +33.6 +12.0 27 +34 +34 очень
жарко
996.9 994.5
03 17.08 З 4 10 км ясно +32.8 +9.6 24 +32 +32 жарко 997.3 994.9 +32.7
06 17.08 З 4 10 км ясно +35.9 +12.2 24 +36 +44 очень
жарко
998.0 995.6
09 17.08 СЗ 4 10 км ясно +41.7 +10.8 16 +40 +54 опасность
солнечного
удара
997.6 995.3 666
12 17.08 З 6 10 км ясно +44.0 +7.0 11 +42 +45 опасность
перегрева
995.9 993.5
15 17.08 З 5 10 км ясно +41.3 +7.4 13 +39 +39 очень
жарко
995.5 993.1 +44.5
18 17.08 З 4 10 км ясно +37.1 +8.9 18 +35 +35 очень
жарко
996.9 994.5
21 17.08 З 3 10 км ясно +34.7 +9.2 21 +33 +33 жарко 997.3 994.9
00 18.08 З 3 10 км ясно +32.1 +10.8 27 +32 +32 жарко 997.5 995.1
03 18.08 З 2 10 км ясно +30.0 +12.4 34 +31 +32 жарко 998.4 996.0 +29.7
06 18.08 З 2 10 км ясно +36.7 +14.7 27 +38 +50 очень
душно
999.6 997.2
09 18.08 З 3 10 км ясно +41.9 +10.9 16 +41 +57 опасность
перегрева
999.5 997.1
12 18.08 СЗ 4 10 км ясно +42.7 +10.6 15 +41 +48 опасность
перегрева
998.6 996.2
15 18.08 З 2 10 км ясно +40.6 +10.8 17 +39 +39 очень
жарко
999.1 996.7 +43.4
18 18.08 ЮЗ 2 10 км ясно +35.4 +11.8 24 +35 +35 очень
жарко
1000.8 998.4
21 18.08 ЮЗ 1 10 км ясно +31.1 +12.5 32 +32 +32 жарко 1001.3 998.9
00 19.08 ЮВ 1 8000 м мгла ясно +29.4 +11.0 32 +30 +30 жарко 1001.2 998.8
03 19.08 Ю 1 7000 м мгла ясно +28.5 +12.4 37 +30 +30 жарко 1002.0 999.6 +26.8
06 19.08 ЮЗ 1 10 км ясно +40.6 +16.1 24 +42 +56 опасность
перегрева
1002.6 1000.2

 

Местоположение метеостанции Ахваз (Иран): широта 31.33 долгота 48.67 высота над уровнем моря 22 м.

В архиве по умолчанию представлена погода в Ахвазе за последнюю неделю. Архивные данные за месяц целиком и за предыдущие месяцы, начиная с января 2011 года, Вы можете получить, выбрав интересующий диапазон дат из раскрывающегося списка и нажав кнопку "Ввод!".


*Определитесь, кто Вы:
робот инопланетянин человек

Внимание! Время в таблицах - всемирное. Для получения местного времени необходимо прибавить поправку, которая равна 3.5 ч.

Смотрите также архив погоды в соседних городах и на ближайших метеорологических станциях:

Погода в Месджеде-Солеймане (Иран) (92 км)
Погода в Сафиабаде (Иран) (107 км)
Погода в Омидийе (Иран) (114 км)
Погода в Абадане (Иран) (114 км)
Погода в Басре (Ирак) (120 км)
Погода в Басре аэропорт (Ирак) (124 км)
Погода в Эль-Фао (Ирак) (151 км)
Погода в Амаре (Ирак) (153 км)
Погода в Абдали (Кувейт) (167 км)
Погода на Бубияне (Кувейт) (176 км)

Пояснения к столбцам:

Ветер - указаны скорость ветра в м/с - средняя за 10 мин, порывы в срок и между сроками (в фигурных скобках) и направление, откуда дует ветер: С - северный, СВ - северо-восточный, В - восточный, ЮВ - юго-восточный, Ю - южный, ЮЗ - юго-западный, З - западный, СЗ - северо-западный.
Видимость - горизонтальная дальность видимости в метрах или километрах. При видимости от 1 до 10 км при отсутствии осадков обычно наблюдается дымка, при ухудшении видимости до 1 км и менее - туман. В сухую погоду видимость может ухудшаться дымом, пылью или мглою.
Явления - указаны атмосферные явления, наблюдавшиеся в срок или в последний час перед сроком; фигурными скобками обозначены явления, наблюдавшиеся между сроками (за 1-3 часа до срока); квадратными скобками обозначены град или гололедные отложения с указанием их диаметра в мм.
Облачность - указаны через наклонную черту общая и нижняя облачность в баллах и высота нижней границы облаков в метрах; квадратными скобками обозначены формы облаков: Ci - перистые, Cs - перисто-слоистые, Cc - перисто-кучевые, Ac - высококучевые, As - высокослоистые, Sc - слоисто-кучевые, Ns - слоисто-дождевые, Cu - кучевые, Cb - кучево-дождевые. Подробнее классификацию облаков см. в Атласе облаков (PDF).
T - Температура воздуха - температура, измеренная на высоте 2 м над землей.
Td - Температура точки росы - температура, при понижении до которой содержащийся в воздухе водяной пар достигнет насыщения.
f - Относительная влажность воздуха - влажноcть воздуха, измеренная на высоте 2 м над землей.
Te - Эффективная температура - температура, которую ощущает одетый по сезону человек в тени. Характеристика душности погоды. При расчете учитывается влияние влажности воздуха и скорости ветра на теплоощущения человека.
Tes - Эффективная температура на солнце - температура, которую ощущает человек, с поправкой на солнечный нагрев. Характеристика знойности погоды. Зависит от высоты солнца над горизонтом, облачности и скорости ветра. Ночью, в пасмурную погоду, а также при ветре 12 м/с и более поправка равна нулю.
P - Атмосферное давление - приведенное к уровню моря атмосферное давление.
Po - Атмосферное давление - измеренное на уровне метеостанции атмосферное давление.
Tmin - Минимальная температура - минимум температуры воздуха на высоте 2 м над землей.
Tmax - Максимальная температура - максимум температуры воздуха на высоте 2 м над землей.
R - Количество осадков - Количество выпавших осадков за период времени, мм. При наведении курсора мыши на число - период времени, за который выпало указанное количество осадков.
R24 - Количество осадков - Количество выпавших осадков за 24 часа, мм.
S - Снежный покров - Высота снежного покрова, см. При наведении курсора мыши на число - состояние снежного покрова и степень покрытия местности в баллах.